Regional Weather Roundup
Issued by NWS Little Rock, AR

Home | Current Version | Previous Version | Graphics & Text | Print | Product List | Glossary On
Versions: 1 2 3 4 5 6 7 8 9 10 11 12 13 14 15 16 17 18 19 20 21 22 23 24 25 26 27 28 29 30 31 32 33 34 35 36 37 38 39 40 41 42 43 44 45 46 47 48 49 50
998
ASUS44 KLZK 241405
RWRLZK

WEATHER ROUNDUP FOR ARKANSAS
NATIONAL WEATHER SERVICE LITTLE ROCK AR
900 AM CDT TUE MAY 24 2016

NOTE: "FAIR" INDICATES FEW OR NO CLOUDS BELOW 12,000 FEET WITH NO
SIGNIFICANT WEATHER AND/OR OBSTRUCTIONS TO VISIBILITY.

ARZ001-003-010-029-241500-
NORTHWEST ARKANSAS

CITY           SKY/WX    TMP DP  RH WIND       PRES   REMARKS
FAYETTEVILLE   CLOUDY    73  67  81 S12       30.00S
FORT SMITH     LGT RAIN  70  66  87 NE3       30.00R
HARRISON       PTSUNNY   73  65  75 S7        30.02R
BENTONVILLE    CLOUDY    73  64  73 S10G16    30.00S
ROGERS         PTSUNNY   72  68  87 S7        30.00S
SILOAM SPGS    MOSUNNY   73  61  64 S14G21    29.99S
HIGHFILL       MOSUNNY   73  67  81 S15       29.98S
SPRINGDALE     MOSUNNY   73  66  78 S14       30.02R
$$

ARZ004-005-016-241500-
NORTH CENTRAL ARKANSAS

CITY           SKY/WX    TMP DP  RH WIND       PRES   REMARKS
BATESVILLE     PTSUNNY   70  63  78 CALM      30.03S
FLIPPIN        CLOUDY   N/A N/A N/A CALM      29.99R
MTN HOME       PTSUNNY   69  63  81 SE6       30.01R
$$

ARZ040-041-241500-
WEST CENTRAL ARKANSAS

CITY           SKY/WX    TMP DP  RH WIND       PRES   REMARKS
MENA           CLOUDY    75  70  83 SW3       30.04R
MOUNT IDA      CLOUDY    75  66  73 CALM      30.02R
$$

ARZ009-017-025-026-028-241500-
NORTHEAST ARKANSAS

CITY           SKY/WX    TMP DP  RH WIND       PRES   REMARKS
CORNING          N/A     73  59  60 S10       30.05R
JONESBORO      PTSUNNY   74  59  59 S7        30.05R
NEWPORT        CLOUDY    71  62  73 S8        30.05R
WALNUT RIDGE   CLOUDY    73  59  60 S10       30.04R
BLYTHEVILLE    SUNNY     78  56  46 S13       30.06R
NW BLYTHEVILLE PTSUNNY   77  57  50 S10G17    30.05
$$

ARZ022-023-033-042-044-241500-
CENTRAL ARKANSAS

CITY           SKY/WX    TMP DP  RH WIND       PRES   REMARKS
LITTLE ROCK    CLOUDY    77  67  71 SW10      30.04R
N LITTLE ROCK    N/A     75  67  76 SW6       30.02R
SEARCY         PTSUNNY   72  65  78 S5        30.06R
HOT SPRINGS    CLOUDY    74  66  76 CALM      30.05R
RUSSELLVILLE   MOSUNNY   72  64  76 E5        30.02R
CLINTON        FAIR      72  64  78 CALM      30.04R
$$

ARZ036-241500-
EAST ARKANSAS

CITY           SKY/WX    TMP DP  RH WIND       PRES   REMARKS
WEST MEMPHIS   MOSUNNY   76  56  49 S12       30.06S
$$

ARZ050-053-066-070-073-241500-
SOUTHWEST ARKANSAS

CITY           SKY/WX    TMP DP  RH WIND       PRES   REMARKS
ARKADELPHIA    FAIR      73  72  97 S5        30.06R
CAMDEN         MOSUNNY   75  64  69 S6        30.06R
TEXARKANA      CLOUDY    76  69  79 S8        30.04R
EL DORADO      PTSUNNY   74  68  81 S6        30.06R
DE QUEEN       CLOUDY    73  69  87 CALM      30.01R
$$

ARZ056-057-069-241500-
SOUTHEAST ARKANSAS

CITY           SKY/WX    TMP DP  RH WIND       PRES   REMARKS
PINE BLUFF     MOSUNNY   74  65  73 SW9       30.06R
STUTTGART      SUNNY     79  61  53 S13       30.06R
MONTICELLO     SUNNY     78  68  71 SW5       30.07R

$$






USA.gov is the U.S. government's official web portal to all federal, state and local government web resources and services.